INTELSAT 37E (IS-37E)

Last updated on Sun Apr 12 2026 00:02:54 GMT+0000 (Coordinated Universal Time)

1 42950U 17059A 26101.37450976 .00000000 00000+0 00000+0 0 9991 2 42950 0.0179 191.2671 0002095 213.8880 271.2652 1.00269300 31394
UTC large
Height (km)
Speed (km/s)
/
Latitude / Longitude
Inclination (degrees)
Orbital Period (minutes)
Azimuth
Elevation
Range (km)
Doppler Factor

Next 0 passes for location: London (51.5072 / 0.1276)

Sorry there are no passes over London.
INTELSAT 37E (IS-37E)